Regional Weather Roundup
Issued by NWS Sterling, VA

Home | Current Version | Previous Version | Graphics & Text | Print | Product List | Glossary On
Versions: 1 2 3 4 5 6 7 8 9 10 11 12 13 14 15 16 17 18 19 20 21 22 23 24 25 26 27 28 29 30 31 32 33 34 35 36 37 38 39 40 41 42 43 44 45 46 47 48 49 50
000
ASUS41 KLWX 012010
RWRLWX

REGIONAL WEATHER ROUNDUP
NATIONAL WEATHER SERVICE BALTIMORE MD/WASHINGTON DC
300 PM EST SUN MAR 01 2015

Note: "FAIR" indicates few or no clouds below 12,000 feet
with no significant weather and/or obstructions to visibility.
 TC=TEMPERATURE CELSIUS

 * =Non NWS site. Station does not report precipitation (e.g. rain,
    snow, etc.), thunder, or fog.

DCZ001-MDZ009-015-VAZ040>042-051-053>054-012100-
WASHINGTON METRO

CITY           SKY/WX    TMP DP  RH WIND       PRES   REMARKS
WASHINGTON NAT FRZ RAIN  30  27  86 S9        30.45F FOG     WCI  22
DULLES         FRZ RAIN  28  24  85 S10       30.41F WCI  19
ANDREWS AFB    FRZ RAIN  30  28  93 S5        30.42F FOG
FT BELVOIR     FRZ RAIN  29  27  90 S5        30.44S FOG
QUANTICO       FRZ RAIN  30  27  88 S6        30.46F FOG
COLLEGE PARK*  CLOUDY    32  30  93 CALM      30.43F
LEESBURG*      MIX PCPN  32  30  93 S8        30.40F WCI  25
MANASSAS*      CLOUDY    30  28  93 S8        30.43  VSB 1   WCI  23
GAITHERSBURG*  CLOUDY    28  25  86 CALM      30.43F

$$

MDZ006>007-011-014-012100-
BALTIMORE METRO

CITY           SKY/WX    TMP DP  RH WIND       PRES   REMARKS
BWI AIRPORT    FRZ RAIN  30  28  92 S6        30.42F FOG
MD SCIENCE CTR   N/A      1  32 100 MISG      30.43F
MARTIN STATE   FRZ DRZL  30  28  93 SE7       30.45
ANNAPOLIS      FRZ RAIN  28  26  92 MISG      30.44F FOG
FORT MEADE*    CLOUDY    32  30  93 CALM      30.44F

$$

MDZ012-015-019>023-012100-
MARYLAND EASTERN SHORE

CITY           SKY/WX    TMP DP  RH WIND       PRES   REMARKS
OCEAN CITY     FRZ RAIN  31  30  96 N7        30.44F FOG
SALISBURY      LGT RAIN  33  30  88 NW6       30.45F FOG
BAY BRIDGE AP* LGT SNOW  28  28 100 SE9       30.44F WCI  20
CAMBRIDGE*     CLOUDY    32  30  93 CALM      30.45F
EASTON*        LGT SNOW  30  30 100 CALM      30.48F

$$

MDZ017>025-012100-
SOUTHERN MARYLAND

CITY           SKY/WX    TMP DP  RH WIND       PRES   REMARKS
PATUXENT RIVER FRZ RAIN  27  24  89 E3        30.46F FOG
ST INIGOES     FRZ RAIN  28  24  85 CALM      30.45F FOG
LEONARDTOWN*   CLOUDY    30  28  93 CALM      30.47F

$$

MDZ003>005-012100-
NORTH CENTRAL MARYLAND

CITY           SKY/WX    TMP DP  RH WIND       PRES   REMARKS
FREDERICK*     LGTSLEET  30  25  80 SW7       30.43F
HAGERSTOWN APT FRZ RAIN  29  26  89 S9        30.35F FOG     WCI  20
WESTMINSTER*   LGT SNOW  30  28  93 S10       30.36F WCI  21

$$

MDZ501>502-012100-
WESTERN MARYLAND

CITY           SKY/WX    TMP DP  RH WIND       PRES   REMARKS
OAKLAND*       CLOUDY    32 N/A N/A SW9       30.20F FOG     WCI  24
CUMBERLAND*    CLOUDY    30  27  86 S3        30.36F

$$

VAZ025>031-012100-
SHENANDOAH VALLEY

CITY           SKY/WX    TMP DP  RH WIND       PRES   REMARKS
WINCHESTER*    MIX PCPN  32  27  80 S3        30.34F
FRONT ROYAL*   CLOUDY    32  30  93 CALM      30.34F
LURAY*         DRIZZLE   36  30  80 S6        30.34F
NEW MARKET*    CLOUDY    34  27  75 W5        30.33F
STAUNTON*      CLOUDY    36  26  68 S8        30.35F
WAYNESBORO*    CLOUDY    34  27  75 CALM      30.34F

$$

WVZ021-048>050-054>055-012100-
EASTERN WEST VIRGINIA PANHANDLE

CITY           SKY/WX    TMP DP  RH WIND       PRES   REMARKS
MARTINSBURG    FRZ RAIN  31  26  82 SE3       30.36F
PETERSBURG*    NOT AVBL

$$

VAZ036>039-050-012100-
CENTRAL FOOTHILLS

CITY           SKY/WX    TMP DP  RH WIND       PRES   REMARKS
CHARLOTTESVILL CLOUDY    29  26  89 CALM      30.40F
CULPEPER*      CLOUDY    30  28  93 S6        30.42F
ORANGE*        CLOUDY    32  30  93 CALM      30.44S
GORDONSVILLE*  CLOUDY    29  27  91 SW3       30.41F
WARRENTON*     DRIZZLE   31  31 100 S7        30.41F

$$

VAZ055>057-012100-
NORTH AND CENTRAL PIEDMONT

CITY           SKY/WX    TMP DP  RH WIND       PRES   REMARKS
FREDERICKSBRG* MIX PCPN  32  32 100 S3        30.44F
STAFFORD*      MIX PCPN  29  32 100 S3        30.48F

$$

NCZ024-NYZ072-PAZ021-071-VAZ022-071-012100-
OTHER REGIONAL OBSERVATIONS

CITY           SKY/WX    TMP DP  RH WIND       PRES   REMARKS
NEW YORK CITY  SNOW      27  21  78 CALM      30.46F VSB 1/2
PHILADELPHIA   FRZ RAIN  29  25  85 SE5       30.44F FOG
PITTSBURGH     LGT SNOW  34  32  92 SW7       30.22F FOG
ROANOKE        CLOUDY    34  24  67 SE5       30.38F
RICHMOND       FRZ RAIN  30  27  88 CALM      30.44F FOG
RALEIGH        LGT RAIN  34  30  86 VRB3      30.44S FOG

$$

ANZ530>537-012100-
MARINE OBSERVATIONS

STATION/POSITION TIME  TEMP    WIND        PRES
                       AIR SEA DIR/SP/G
                 (UTC) (F)     (DEG/KT/KT) (MB)
THOMAS PT LIGHT  2000   27 31     CALM     1031.6F
BALT KEY BRIDGE  1900   27     120/  4/  5 1031.8F
COVE POINT       1900   24     190/  3/  4 1032.4F
LEWISETTA        1900   27 33              1031.9F
SOLOMONS ISLAND  1900      32                N/A

$$




USA.gov is the U.S. government's official web portal to all federal, state and local government web resources and services.